Goodland, KS

12:45 PM MDT on March 26, 2017 (GMT -0600)
Renner-Goodland Municipal

Weather History for KGLD - September, 2013

Change the Weather History Date:

Friday, September 6, 2013

  Actual Average Record
Temperature  
Mean Temperature 85 °F 69 °F  
Max Temperature 100 °F 83 °F 102 °F (1939)
Min Temperature 70 °F 54 °F 37 °F (1956)
Degree Days  
Heating Degree Days 0 1  
Month to date heating degree days 0 6  
Since 1 July heating degree days 7 18  
Cooling Degree Days 20 5  
Month to date cooling degree days 81 35  
Year to date cooling degree days 1079 868  
Growing Degree Days 35 (Base 50)    
Moisture  
Dew Point 43 °F    
Average Humidity 26    
Maximum Humidity 38    
Minimum Humidity 13    
Precipitation  
Precipitation 0.00 in 0.05 in 0.97 in (1942)
Month to date precipitation 0.00 0.29  
Year to date precipitation 8.79 16.19  
Snow  
Snow 0.00 in 0.00 in - ()
Month to date snowfall 0.0 0.0  
Since 1 July snowfall 0.0 0.0  
Since 1 September snowfall 0.0 0.0  
Snow Depth 0.00 in    
Sea Level Pressure  
Sea Level Pressure 29.92 in    
Wind  
Wind Speed 13 mph (SSW)    
Max Wind Speed 21 mph    
Max Gust Speed 33 mph    
Visibility 10 miles    
Events      
T = Trace of Precipitation, MM = Missing Value Source: NWS Daily Summary

Daily Weather History Graph

Daily Weather History Graph

Search for Another Location

Airport or City:

Trip Planner

Search our weather history database for the weather conditions in past years. The results will help you decide how hot, cold, wet, or windy it might be!

Date:

Astronomy

Sep. 06, 2013 Rise Set
Actual Time 6:20 AM MDT 7:09 PM MDT
Civil Twilight 5:52 AM MDT 7:36 PM MDT
Nautical Twilight 5:20 AM MDT 8:08 PM MDT
Astronomical Twilight 4:47 AM MDT 8:41 PM MDT
Moon 7:33 AM MDT (9/6) 7:35 PM MDT (9/6)
Length of Visible Light 13h 43m
Length of Day
12h 49m
New Moon, 2% of the Moon is Illuminated
Sep 6
New Moon
Sep 12
First Quarter
Sep 19
Full
Sep 26
Last Quarter
Oct 4
New

Hourly Weather History & Observations

Time (MDT) Temp. Dew Point Humidity Pressure Visibility Wind Dir Wind Speed Gust Speed Precip Events Conditions
12:53 AM 72.0 °F 45.0 °F 38% 29.97 in 10.0 mi South 13.8 mph - N/A   Clear
1:53 AM 72.0 °F 44.1 °F 37% 29.96 in 10.0 mi SSW 12.7 mph - N/A   Clear
2:53 AM 72.0 °F 44.1 °F 37% 29.95 in 10.0 mi SSW 15.0 mph - N/A   Clear
3:53 AM 73.0 °F 41.0 °F 31% 29.94 in 10.0 mi SSW 13.8 mph - N/A   Clear
4:53 AM 71.1 °F 41.0 °F 34% 29.94 in 10.0 mi SW 16.1 mph 21.9 mph N/A   Clear
5:53 AM 71.1 °F 42.1 °F 35% 29.94 in 10.0 mi SSW 13.8 mph - N/A   Clear
6:53 AM 71.1 °F 43.0 °F 36% 29.96 in 10.0 mi SW 13.8 mph - N/A   Clear
7:53 AM 75.9 °F 44.1 °F 32% 29.97 in 10.0 mi SW 11.5 mph - N/A   Clear
8:53 AM 81.0 °F 46.0 °F 29% 29.97 in 10.0 mi SSW 8.1 mph - N/A   Clear
9:53 AM 88.0 °F 46.9 °F 24% 29.97 in 10.0 mi SSW 10.4 mph - N/A   Clear
10:53 AM 93.9 °F 44.1 °F 18% 29.96 in 10.0 mi SW 9.2 mph - N/A   Clear
11:53 AM 97.0 °F 42.1 °F 15% 29.94 in 10.0 mi South 15.0 mph - N/A   Clear
12:53 PM 99.0 °F 42.1 °F 14% 29.92 in 10.0 mi South 12.7 mph 20.7 mph N/A   Clear
1:53 PM 100.0 °F 42.1 °F 14% 29.91 in 10.0 mi South 15.0 mph - N/A   Clear
2:53 PM 100.0 °F 42.1 °F 14% 29.89 in 10.0 mi South 15.0 mph 20.7 mph N/A   Clear
3:53 PM 99.0 °F 39.9 °F 13% 29.87 in 10.0 mi South 10.4 mph 21.9 mph N/A   Clear
4:53 PM 98.1 °F 41.0 °F 14% 29.86 in 10.0 mi South 16.1 mph - N/A   Clear
5:53 PM 95.0 °F 39.9 °F 15% 29.86 in 10.0 mi South 17.3 mph - N/A   Clear
6:53 PM 86.0 °F 45.0 °F 24% 29.87 in 10.0 mi South 9.2 mph - N/A   Clear
7:53 PM 78.1 °F 45.0 °F 31% 29.89 in 10.0 mi South 10.4 mph - N/A   Clear
8:53 PM 75.0 °F 44.1 °F 33% 29.90 in 10.0 mi South 10.4 mph - N/A   Clear
9:53 PM 77.0 °F 44.1 °F 31% 29.89 in 10.0 mi South 11.5 mph - N/A   Clear
10:53 PM 77.0 °F 44.1 °F 31% 29.89 in 10.0 mi South 11.5 mph - N/A   Clear
11:53 PM 75.0 °F 45.0 °F 34% 29.89 in 10.0 mi SSW 10.4 mph - N/A   Clear